"startDT [UTC]","vpos","CH4 [ppm]","stdev(CH4) [ppm]","CO2 [ppm]","stdev(CO2) [ppm]","H2O [ppm]","stdev(H2O)","p_LGR [torr]","T_LGR [C]","mt1_LGR [us]","mt2_LGR [us]","T_ECpre [C]","T_EC1 [C]","T_EC2 [C]","p_inlet [hPa]","p_in [hPa]","p_out [hPa]","T_inlet [C]","RH_inlet [%]","dwpt_inlet [C]","T_vent [C]","RH_vent [%]","dwpt_vent [C]","flow_vent [l min-1]","flow_inlet [l min-1]","dwpt_sample [C]","T_room [C]"
2012-06-10 00:00:00,0.0,,,,,,,,,,,0.96,-25.53,16.47,-63,561,-937,29.3,15.0,-0.0,29.2,1.2,-30.7,5.73,2.33,-26.8,33.3
2012-06-10 00:01:00,0.0,,,,,,,,,,,0.96,-25.53,16.61,-63,561,-937,29.3,15.1,-0.0,29.2,1.2,-30.8,5.73,2.33,-26.8,33.3
2012-06-10 00:02:00,0.0,,,,,,,,,,,0.95,-25.52,16.73,-64,561,-937,29.3,15.1,0.0,29.2,1.2,-30.8,5.73,2.31,-26.8,33.3
2012-06-10 00:03:00,0.0,,,,,,,,,,,0.96,-25.52,16.85,-63,561,-937,29.3,15.1,0.1,29.2,1.2,-30.7,5.73,2.30,-26.8,33.4
2012-06-10 00:04:00,0.0,,,,,,,,,,,0.96,-25.52,16.98,-64,561,-937,29.3,15.2,0.1,29.2,1.2,-30.8,5.73,2.30,-26.8,33.4
2012-06-10 00:05:00,0.0,,,,,,,,,,,0.96,-25.51,17.09,-64,561,-937,29.3,15.2,0.1,29.2,1.2,-30.7,5.73,2.31,-26.8,33.3
2012-06-10 00:06:00,0.0,,,,,,,,,,,0.96,-25.51,17.20,-63,561,-937,29.3,15.2,0.2,29.2,1.2,-30.8,5.73,2.32,-26.8,33.3
2012-06-10 00:07:00,0.0,,,,,,,,,,,0.97,-25.51,17.30,-63,561,-937,29.3,15.2,0.1,29.2,1.2,-30.7,5.73,2.32,-26.8,33.4
2012-06-10 00:08:00,0.0,,,,,,,,,,,0.96,-25.49,17.40,-63,561,-937,29.3,15.2,0.2,29.2,1.2,-30.7,5.73,2.32,-26.5,33.4
2012-06-10 00:09:00,0.0,,,,,,,,,,,0.97,-25.50,17.50,-63,561,-937,29.3,15.2,0.1,29.2,1.2,-30.8,5.73,2.31,-26.3,33.3
2012-06-10 00:10:00,0.0,,,,,,,,,,,0.96,-25.49,17.59,-63,561,-937,29.3,15.1,0.1,29.2,1.2,-30.7,5.73,2.30,-26.3,33.4
2012-06-10 00:11:00,0.0,,,,,,,,,,,0.95,-25.49,17.68,-63,561,-937,29.3,15.0,0.0,29.3,1.2,-30.7,5.73,2.30,-26.3,33.4
2012-06-10 00:12:00,0.0,,,,,,,,,,,0.96,-25.49,17.76,-64,561,-937,29.3,15.2,0.1,29.3,1.2,-30.7,5.73,2.31,-26.3,33.4
2012-06-10 00:13:00,0.0,1.8846,0.0008,399.62,0.17,2.5,9.0,138.08,30.08,24.63,36.34,0.94,-25.49,17.83,-64,561,-937,29.3,15.1,0.1,29.3,1.1,-31.0,5.73,2.32,-26.3,33.4
2012-06-10 00:14:00,0.0,1.8849,0.0008,399.53,0.18,5.6,13.4,138.08,30.08,24.63,36.35,0.95,-25.49,17.91,-64,561,-937,29.3,15.3,0.3,29.3,1.1,-30.9,5.73,2.33,-26.3,33.4
2012-06-10 00:15:00,0.0,1.8846,0.0008,399.60,0.24,6.3,14.3,138.07,30.08,24.64,36.35,0.93,-25.48,17.98,-64,561,-937,29.3,15.1,0.1,29.3,1.1,-31.0,5.73,2.31,-26.3,33.5
2012-06-10 00:16:00,0.0,,,,,,,,,,,0.94,-25.48,18.05,-64,561,-937,29.3,15.1,0.1,29.3,1.1,-31.0,5.73,2.30,-26.3,33.4
2012-06-10 00:17:00,0.0,,,,,,,,,,,0.94,-25.48,18.12,-64,561,-937,29.3,15.1,0.1,29.3,1.1,-31.0,5.73,2.30,-26.3,33.4
2012-06-10 00:18:00,0.0,,,,,,,,,,,0.94,-25.48,18.19,-64,561,-937,29.4,15.1,0.1,29.3,1.1,-30.9,5.73,2.31,-26.3,33.5
2012-06-10 00:19:00,0.0,,,,,,,,,,,0.94,-25.48,18.25,-64,561,-937,29.4,15.2,0.2,29.3,1.1,-30.9,5.73,2.32,-26.3,33.5
2012-06-10 00:20:00,0.0,,,,,,,,,,,0.94,-25.47,18.30,-64,561,-937,29.4,15.3,0.3,29.3,1.1,-30.9,5.73,2.32,-26.3,33.5
2012-06-10 00:21:00,0.0,,,,,,,,,,,0.97,-25.48,18.36,-64,561,-937,29.4,15.1,0.1,29.3,1.1,-31.0,5.73,2.31,-26.3,33.5
2012-06-10 00:22:00,0.0,,,,,,,,,,,0.95,-25.47,18.41,-64,561,-937,29.4,15.3,0.3,29.3,1.1,-31.0,5.73,2.31,-26.3,33.4
2012-06-10 00:23:00,0.0,,,,,,,,,,,0.96,-25.47,18.46,-64,561,-937,29.4,15.2,0.2,29.3,1.1,-31.0,5.73,2.30,-26.3,33.4
2012-06-10 00:24:00,0.0,,,,,,,,,,,0.94,-25.47,18.51,-64,561,-937,29.4,15.4,0.4,29.3,1.1,-31.0,5.73,2.30,-26.3,33.4
2012-06-10 00:25:00,0.0,,,,,,,,,,,0.97,-25.47,18.56,-64,561,-937,29.4,15.5,0.5,29.3,1.1,-31.0,5.73,2.32,-26.3,33.5
2012-06-10 00:26:00,0.0,,,,,,,,,,,0.95,-25.46,18.61,-64,561,-937,29.4,15.5,0.5,29.3,1.1,-30.9,5.73,2.33,-26.3,33.5
2012-06-10 00:27:00,0.0,,,,,,,,,,,0.96,-25.46,18.65,-64,562,-938,29.4,15.4,0.4,29.3,1.1,-30.9,5.73,2.32,-26.3,33.5
2012-06-10 00:28:00,0.0,,,,,,,,,,,0.97,-25.46,18.69,-64,562,-937,29.4,15.6,0.6,29.4,1.1,-30.8,5.73,2.31,-26.3,33.4
2012-06-10 00:29:00,0.0,,,,,,,,,,,0.96,-25.46,18.74,-64,562,-938,29.4,15.4,0.4,29.3,1.1,-31.0,5.73,2.30,-26.3,33.5
2012-06-10 00:30:00,0.0,,,,,,,,,,,0.95,-25.46,18.77,-64,562,-937,29.4,15.4,0.4,29.3,1.1,-31.0,5.73,2.30,-26.3,33.5
2012-06-10 00:31:00,0.0,,,,,,,,,,,0.96,-25.45,18.81,-64,562,-938,29.4,15.4,0.4,29.3,1.1,-30.9,5.73,2.32,-26.3,33.5
2012-06-10 00:32:00,0.0,,,,,,,,,,,0.96,-25.45,18.84,-64,562,-937,29.4,15.4,0.4,29.3,1.1,-30.9,5.73,2.33,-26.3,33.5
2012-06-10 00:33:00,0.0,,,,,,,,,,,0.96,-25.45,18.87,-64,562,-938,29.4,15.5,0.5,29.3,1.1,-30.9,5.73,2.32,-26.3,33.5
2012-06-10 00:34:00,0.0,,,,,,,,,,,0.97,-25.45,18.90,-64,562,-937,29.4,15.6,0.6,29.4,1.1,-30.9,5.73,2.31,-26.3,33.5
2012-06-10 00:35:00,0.0,,,,,,,,,,,0.97,-25.45,18.94,-64,562,-937,29.4,15.6,0.6,29.4,1.1,-30.8,5.73,2.30,-26.3,33.4
2012-06-10 00:36:00,0.0,,,,,,,,,,,0.96,-25.45,18.96,-64,562,-937,29.4,15.6,0.6,29.3,1.1,-30.9,5.73,2.31,-26.3,33.4
2012-06-10 00:37:00,0.0,,,,,,,,,,,0.96,-25.45,18.99,-64,562,-938,29.4,15.6,0.6,29.3,1.1,-30.9,5.73,2.31,-26.3,33.5
2012-06-10 00:38:00,0.0,,,,,,,,,,,0.96,-25.45,19.02,-64,562,-937,29.4,15.6,0.6,29.3,1.1,-31.0,5.73,2.32,-26.3,33.4
2012-06-10 00:39:00,0.0,,,,,,,,,,,0.96,-25.44,19.05,-64,562,-938,29.4,15.6,0.6,29.3,1.1,-30.9,5.73,2.32,-26.3,33.4
2012-06-10 00:40:00,0.0,,,,,,,,,,,0.96,-25.45,19.07,-64,562,-937,29.4,15.5,0.5,29.3,1.1,-30.9,5.73,2.31,-26.3,33.4
2012-06-10 00:41:00,0.0,,,,,,,,,,,0.97,-25.45,19.09,-64,562,-938,29.4,15.5,0.5,29.3,1.1,-30.9,5.73,2.30,-26.4,33.4
2012-06-10 00:42:00,0.0,,,,,,,,,,,0.98,-25.45,19.12,-64,562,-937,29.4,15.4,0.4,29.4,1.1,-31.0,5.73,2.30,-26.3,33.4
2012-06-10 00:43:00,0.0,,,,,,,,,,,0.96,-25.44,19.14,-64,562,-938,29.4,15.3,0.4,29.3,1.1,-30.9,5.73,2.30,-26.3,33.4
2012-06-10 00:44:00,0.0,,,,,,,,,,,0.96,-25.45,19.16,-64,562,-937,29.4,15.4,0.4,29.4,1.1,-30.9,5.73,2.32,-26.3,33.5
2012-06-10 00:45:00,0.0,,,,,,,,,,,0.96,-25.45,19.18,-64,562,-938,29.4,15.3,0.3,29.3,1.1,-30.9,5.73,2.32,-26.3,33.5
2012-06-10 00:46:00,0.0,,,,,,,,,,,0.95,-25.44,19.20,-64,562,-937,29.5,15.3,0.4,29.4,1.1,-31.0,5.73,2.31,-26.3,33.5
2012-06-10 00:47:00,0.0,,,,,,,,,,,0.98,-25.45,19.22,-64,562,-938,29.5,15.4,0.4,29.4,1.1,-31.1,5.73,2.30,-26.3,33.4
2012-06-10 00:48:00,0.0,,,,,,,,,,,0.96,-25.44,19.23,-64,562,-937,29.5,15.3,0.4,29.4,1.1,-31.1,5.73,2.30,-26.3,33.5
2012-06-10 00:49:00,0.0,,,,,,,,,,,0.97,-25.45,19.25,-64,562,-938,29.5,15.3,0.4,29.3,1.1,-31.2,5.73,2.30,-26.3,33.5
2012-06-10 00:50:00,0.0,,,,,,,,,,,0.96,-25.45,19.26,-64,562,-937,29.5,15.4,0.5,29.4,1.1,-31.2,5.73,2.31,-26.3,33.5
2012-06-10 00:51:00,0.0,,,,,,,,,,,0.96,-25.45,19.28,-64,562,-938,29.5,15.5,0.5,29.4,1.1,-31.2,5.73,2.33,-26.3,33.5
2012-06-10 00:52:00,0.0,,,,,,,,,,,0.94,-25.44,19.30,-64,562,-937,29.5,15.6,0.6,29.4,1.1,-31.1,5.73,2.32,-26.4,33.5
2012-06-10 00:53:00,0.0,,,,,,,,,,,0.94,-25.44,19.31,-64,562,-938,29.5,15.6,0.6,29.4,1.1,-31.2,5.73,2.31,-26.3,33.6
2012-06-10 00:54:00,0.0,,,,,,,,,,,0.97,-25.44,19.32,-64,562,-937,29.5,15.7,0.8,29.4,1.1,-31.1,5.73,2.30,-26.4,33.6
2012-06-10 00:55:00,0.0,,,,,,,,,,,1.04,-25.44,19.07,-64,562,-938,29.5,15.9,0.9,29.4,1.1,-31.1,5.73,2.30,-26.3,33.5
2012-06-10 00:56:00,0.0,,,,,,,,,,,1.12,-25.43,17.33,-64,562,-937,29.5,16.0,1.0,29.4,1.1,-31.0,5.73,2.32,-26.3,33.5
2012-06-10 00:57:00,0.0,,,,,,,,,,,1.01,-25.43,15.00,-64,562,-938,29.5,15.7,0.7,29.4,1.1,-31.2,5.73,2.32,-26.3,33.6
2012-06-10 00:58:00,0.0,,,,,,,,,,,1.05,-25.44,12.61,-64,562,-938,29.5,15.8,0.8,29.4,1.1,-31.2,5.73,2.32,-26.3,33.6
2012-06-10 00:59:00,0.0,,,,,,,,,,,1.12,-25.45,10.26,-64,562,-938,29.5,15.6,0.7,29.4,1.1,-31.1,5.73,2.31,-26.3,33.6
2012-06-10 01:00:00,0.0,,,,,,,,,,,1.03,-25.46,7.99,-64,562,-938,29.5,15.4,0.5,29.4,1.1,-31.1,5.73,2.30,-26.3,33.6
2012-06-10 01:01:00,0.0,,,,,,,,,,,1.04,-25.45,5.83,-64,562,-938,29.5,15.6,0.7,29.5,1.1,-31.0,5.73,2.30,-26.3,33.6
2012-06-10 01:02:00,0.0,,,,,,,,,,,1.13,-25.45,3.78,-64,562,-938,29.5,15.4,0.5,29.5,1.1,-31.1,5.73,2.31,-26.3,33.6
2012-06-10 01:03:00,0.0,,,,,,,,,,,1.05,-25.45,1.83,-64,562,-937,29.5,15.5,0.6,29.5,1.1,-31.1,5.73,2.32,-26.3,33.6
2012-06-10 01:04:00,0.0,,,,,,,,,,,1.02,-25.44,-0.01,-64,562,-938,29.5,15.5,0.6,29.5,1.1,-31.1,5.73,2.32,-26.3,33.6
2012-06-10 01:05:00,0.0,,,,,,,,,,,1.12,-25.44,-1.74,-64,562,-937,29.5,15.7,0.7,29.5,1.1,-31.1,5.73,2.31,-26.3,33.6
2012-06-10 01:06:00,0.0,,,,,,,,,,,1.07,-25.44,-3.16,-64,562,-938,29.5,15.6,0.7,29.5,1.1,-31.2,5.73,2.30,-26.3,33.5
2012-06-10 01:07:00,0.0,,,,,,,,,,,1.01,-25.44,-4.59,-64,562,-937,29.5,15.5,0.7,29.5,1.1,-31.1,5.73,2.30,-26.3,33.5
2012-06-10 01:08:00,0.0,,,,,,,,,,,1.09,-25.43,-6.06,-64,562,-938,29.5,15.6,0.7,29.5,1.1,-31.1,5.73,2.30,-26.3,33.6
2012-06-10 01:09:00,0.0,,,,,,,,,,,1.10,-25.44,-7.41,-64,562,-937,29.6,15.7,0.9,29.5,1.1,-31.1,5.73,2.31,-26.3,33.7
2012-06-10 01:10:00,0.0,,,,,,,,,,,1.02,-25.44,-8.58,-64,562,-938,29.6,15.6,0.7,29.5,1.1,-31.1,5.73,2.32,-26.3,33.6
2012-06-10 01:11:00,0.0,,,,,,,,,,,1.03,-25.44,-9.70,-64,562,-937,29.6,15.6,0.7,29.5,1.1,-31.1,5.73,2.31,-26.3,33.6
2012-06-10 01:12:00,0.0,,,,,,,,,,,1.10,-25.45,-10.80,-64,562,-938,29.6,15.7,0.9,29.5,1.1,-30.9,5.73,2.30,-26.3,33.6
2012-06-10 01:13:00,0.0,1.8846,0.0008,399.62,0.17,2.5,9.0,138.08,30.08,24.63,36.34,1.08,-25.46,-11.88,-64,562,-937,29.6,15.7,0.8,29.5,1.1,-31.1,5.73,2.29,-26.3,33.6
2012-06-10 01:14:00,0.0,1.8849,0.0008,399.53,0.18,5.6,13.4,138.08,30.08,24.63,36.35,1.01,-25.46,-12.87,-64,562,-938,29.6,15.7,0.8,29.5,1.1,-31.0,5.73,2.30,-26.3,33.6
2012-06-10 01:15:00,0.0,1.8846,0.0008,399.60,0.24,6.3,14.3,138.07,30.08,24.64,36.35,1.03,-25.47,-13.85,-64,562,-938,29.6,15.6,0.8,29.5,1.1,-31.1,5.73,2.32,-26.3,33.6
2012-06-10 01:16:00,0.0,,,,,,,,,,,1.10,-25.48,-14.79,-64,562,-938,29.6,15.8,0.9,29.5,1.1,-31.0,5.73,2.31,-26.3,33.5
2012-06-10 01:17:00,0.0,,,,,,,,,,,1.06,-25.49,-15.65,-64,562,-938,29.6,15.5,0.7,29.5,1.1,-31.0,5.73,2.31,-26.3,33.5
2012-06-10 01:18:00,0.0,,,,,,,,,,,1.00,-25.50,-16.46,-64,562,-938,29.6,15.8,0.9,29.5,1.1,-31.1,5.73,2.29,-26.3,33.5
2012-06-10 01:19:00,0.0,,,,,,,,,,,1.05,-25.51,-17.13,-64,562,-938,29.6,15.8,0.9,29.5,1.1,-31.0,5.73,2.29,-26.3,33.6
2012-06-10 01:20:00,0.0,,,,,,,,,,,1.10,-25.52,-17.84,-64,563,-938,29.6,15.9,1.1,29.6,1.1,-31.2,5.73,2.30,-26.3,33.6
2012-06-10 01:21:00,0.0,,,,,,,,,,,1.04,-25.53,-18.54,-64,562,-938,29.7,15.9,1.1,29.6,1.1,-31.3,5.73,2.31,-26.3,33.7
2012-06-10 01:22:00,0.0,,,,,,,,,,,0.99,-25.54,-19.20,-64,563,-937,29.7,15.7,0.9,29.6,1.1,-31.3,5.73,2.31,-26.3,33.7
2012-06-10 01:23:00,0.0,,,,,,,,,,,1.04,-25.55,-19.81,-64,563,-938,29.7,15.8,1.0,29.6,1.1,-31.3,5.73,2.30,-26.3,33.7
2012-06-10 01:24:00,0.0,,,,,,,,,,,1.09,-25.56,-20.39,-64,563,-937,29.7,15.8,1.0,29.6,1.1,-31.2,5.73,2.29,-26.3,33.7
2012-06-10 01:25:00,0.0,,,,,,,,,,,1.05,-25.57,-20.93,-64,562,-938,29.7,15.8,1.0,29.6,1.1,-31.3,5.73,2.29,-26.3,33.7
2012-06-10 01:26:00,0.0,,,,,,,,,,,1.00,-25.58,-21.43,-64,563,-938,29.7,15.9,1.1,29.6,1.1,-31.3,5.73,2.31,-26.2,33.7
2012-06-10 01:27:00,0.0,,,,,,,,,,,1.01,-25.60,-21.90,-64,563,-938,29.7,15.8,1.0,29.6,1.1,-31.3,5.73,2.31,-26.3,33.7
2012-06-10 01:28:00,0.0,,,,,,,,,,,1.06,-25.60,-22.34,-64,563,-937,29.7,15.9,1.1,29.6,1.1,-31.2,5.73,2.31,-26.3,33.7
2012-06-10 01:29:00,0.0,,,,,,,,,,,1.08,-25.61,-22.75,-64,563,-938,29.7,15.8,1.0,29.7,1.1,-31.3,5.73,2.29,-26.2,33.8
2012-06-10 01:30:00,0.0,,,,,,,,,,,1.03,-25.62,-23.14,-64,563,-938,29.7,15.7,1.0,29.7,1.1,-31.3,5.73,2.29,-26.3,33.8
2012-06-10 01:31:00,0.0,,,,,,,,,,,0.99,-25.63,-23.51,-64,563,-938,29.7,15.7,0.9,29.7,1.1,-31.3,5.73,2.30,-26.2,33.8
2012-06-10 01:32:00,0.0,,,,,,,,,,,1.03,-25.64,-23.86,-64,563,-938,29.7,15.6,0.9,29.7,1.1,-31.3,5.73,2.30,-26.2,33.8
2012-06-10 01:33:00,0.0,,,,,,,,,,,1.07,-25.65,-24.20,-64,563,-938,29.7,15.5,0.8,29.7,1.1,-31.2,5.73,2.31,-26.2,33.8
2012-06-10 01:34:00,0.0,,,,,,,,,,,1.08,-25.66,-24.51,-64,563,-938,29.7,15.4,0.7,29.7,1.1,-31.2,5.73,2.30,-26.2,33.8
2012-06-10 01:35:00,0.0,,,,,,,,,,,1.01,-25.67,-24.80,-64,563,-938,29.8,15.4,0.7,29.7,1.1,-31.4,5.73,2.29,-26.2,33.8
2012-06-10 01:36:00,0.0,,,,,,,,,,,0.99,-25.67,-25.08,-64,563,-937,29.8,15.4,0.7,29.7,1.1,-31.3,5.73,2.29,-26.2,33.8
2012-06-10 01:37:00,0.0,,,,,,,,,,,1.04,-25.68,-25.34,-64,563,-938,29.8,15.4,0.8,29.7,1.1,-31.2,5.73,2.29,-26.2,33.8
2012-06-10 01:38:00,0.0,,,,,,,,,,,1.07,-25.69,-25.59,-64,563,-938,29.8,15.4,0.8,29.7,1.1,-31.3,5.73,2.31,-26.2,33.8
2012-06-10 01:39:00,0.0,,,,,,,,,,,1.01,-25.70,-25.63,-64,563,-938,29.8,15.3,0.6,29.8,1.1,-31.3,5.73,2.31,-26.2,33.8
2012-06-10 01:40:00,0.0,,,,,,,,,,,1.07,-25.71,-25.45,-64,563,-938,29.9,15.3,0.7,29.7,1.0,-31.6,5.73,2.29,-26.2,33.8
2012-06-10 01:41:00,0.0,,,,,,,,,,,1.01,-25.72,-25.61,-64,563,-938,29.9,15.1,0.5,29.7,1.1,-31.5,5.73,2.28,-26.3,33.8
2012-06-10 01:42:00,0.0,,,,,,,,,,,0.94,-25.72,-25.69,-64,563,-938,29.8,15.2,0.6,29.8,1.1,-31.4,5.73,2.29,-26.2,33.8
2012-06-10 01:43:00,0.0,,,,,,,,,,,1.05,-25.73,-25.47,-64,563,-938,29.8,15.3,0.7,29.8,1.0,-31.7,5.73,2.30,-26.2,33.8
2012-06-10 01:44:00,0.0,,,,,,,,,,,1.06,-25.74,-25.60,-64,563,-938,29.9,15.2,0.7,29.8,1.0,-31.9,5.73,2.31,-26.2,33.9
2012-06-10 01:45:00,0.0,,,,,,,,,,,1.05,-25.75,-25.74,-64,563,-938,29.9,15.2,0.6,29.8,1.1,-31.4,5.73,2.30,-26.2,33.9
2012-06-10 01:46:00,0.0,,,,,,,,,,,1.04,-25.76,-25.49,-64,563,-938,29.9,15.2,0.6,29.8,1.1,-31.3,5.73,2.28,-26.2,33.9
2012-06-10 01:47:00,0.0,,,,,,,,,,,1.01,-25.77,-25.58,-64,563,-938,29.9,15.3,0.7,29.8,1.0,-31.6,5.73,2.29,-26.2,33.9
2012-06-10 01:48:00,0.0,,,,,,,,,,,0.99,-25.77,-25.77,-64,563,-938,29.9,15.2,0.6,29.8,1.0,-31.7,5.73,2.30,-26.2,34.0
2012-06-10 01:49:00,0.0,,,,,,,,,,,1.02,-25.77,-25.55,-64,563,-938,29.9,15.1,0.6,29.8,1.0,-31.6,5.73,2.31,-26.2,34.0
2012-06-10 01:50:00,0.0,,,,,,,,,,,1.04,-25.78,-25.57,-64,564,-938,29.9,15.2,0.6,29.8,1.0,-31.5,5.73,2.30,-26.2,34.0
2012-06-10 01:51:00,0.0,,,,,,,,,,,1.08,-25.79,-25.77,-64,564,-938,30.0,15.4,0.8,29.8,1.0,-31.6,5.73,2.28,-26.2,34.0
2012-06-10 01:52:00,0.0,,,,,,,,,,,0.98,-25.80,-25.61,-64,564,-938,29.9,15.4,0.8,29.9,1.1,-31.4,5.73,2.29,-26.2,34.0
2012-06-10 01:53:00,0.0,,,,,,,,,,,1.06,-25.80,-25.57,-64,564,-938,29.9,15.4,0.8,29.9,1.0,-31.5,5.73,2.30,-26.2,34.0
2012-06-10 01:54:00,0.0,,,,,,,,,,,0.96,-25.36,-25.75,-64,563,-938,29.9,15.5,0.9,29.9,1.0,-31.5,5.73,2.31,-26.2,34.0
2012-06-10 01:55:00,0.0,,,,,,,,,,,0.92,-23.72,-25.93,-64,564,-938,29.9,15.5,0.9,29.9,1.1,-30.6,5.73,2.29,-26.2,34.0
2012-06-10 01:56:00,0.0,,,,,,,,,,,0.88,-21.77,-26.05,-64,564,-938,29.9,15.4,0.8,29.9,1.3,-29.5,5.73,2.29,-26.2,34.0
2012-06-10 01:57:00,0.0,,,,,,,,,,,0.89,-19.85,-26.13,-64,564,-938,30.0,15.5,1.0,29.9,1.3,-29.2,5.73,2.28,-26.2,34.1
2012-06-10 01:58:00,0.0,,,,,,,,,,,0.93,-18.00,-26.19,-64,564,-938,30.0,15.5,0.9,29.9,1.4,-28.7,5.73,2.30,-26.2,34.0
2012-06-10 01:59:00,0.0,,,,,,,,,,,0.92,-16.24,-26.22,-64,564,-938,30.0,15.4,0.9,29.9,1.3,-28.8,5.73,2.30,-26.2,33.9
2012-06-10 02:00:00,0.0,,,,,,,,,,,0.94,-14.58,-26.25,-64,564,-938,30.0,15.4,0.9,29.9,1.3,-29.0,5.73,2.30,-26.3,33.9
2012-06-10 02:01:00,0.0,,,,,,,,,,,0.95,-13.00,-26.27,-64,564,-938,30.0,15.4,0.9,29.9,1.3,-29.2,5.73,2.28,-26.3,34.0
2012-06-10 02:02:00,0.0,,,,,,,,,,,0.96,-11.49,-26.27,-64,564,-938,30.0,15.4,0.9,29.9,1.3,-29.5,5.73,2.29,-26.3,34.0
2012-06-10 02:03:00,0.0,,,,,,,,,,,0.96,-10.06,-26.29,-64,564,-938,30.0,15.4,0.9,29.9,1.2,-29.9,5.73,2.30,-26.2,34.0
2012-06-10 02:04:00,0.0,,,,,,,,,,,0.94,-8.69,-26.30,-64,564,-938,30.0,15.6,1.0,29.9,1.2,-29.8,5.73,2.31,-26.2,34.0
2012-06-10 02:05:00,0.0,,,,,,,,,,,0.92,-7.40,-26.30,-64,564,-938,30.0,15.5,1.0,29.9,1.2,-30.0,5.73,2.29,-26.2,34.0
2012-06-10 02:06:00,0.0,,,,,,,,,,,0.91,-6.17,-26.31,-64,564,-938,30.0,15.6,1.1,29.9,1.2,-30.0,5.73,2.28,-26.2,34.0
2012-06-10 02:07:00,0.0,,,,,,,,,,,0.91,-5.00,-26.31,-64,564,-938,30.0,15.5,1.0,29.9,1.2,-30.2,5.73,2.29,-26.3,34.0
2012-06-10 02:08:00,0.0,,,,,,,,,,,0.92,-3.90,-26.32,-64,564,-938,30.0,15.5,1.0,29.9,1.2,-30.4,5.73,2.31,-26.3,33.9
2012-06-10 02:09:00,0.0,,,,,,,,,,,0.92,-2.84,-26.31,-64,564,-938,30.0,15.6,1.0,29.9,1.2,-30.4,5.73,2.31,-26.3,33.9
2012-06-10 02:10:00,0.0,,,,,,,,,,,0.95,-1.85,-26.31,-64,564,-938,30.0,15.5,1.0,29.9,1.1,-30.6,5.73,2.29,-26.3,33.8
2012-06-10 02:11:00,0.0,,,,,,,,,,,0.94,-0.89,-26.31,-64,564,-938,30.0,15.6,1.1,29.9,1.1,-30.7,5.73,2.29,-26.3,33.9
2012-06-10 02:12:00,0.0,,,,,,,,,,,0.94,0.01,-26.30,-64,564,-938,30.0,15.8,1.2,29.9,1.1,-30.7,5.73,2.30,-26.3,33.9
2012-06-10 02:13:00,0.0,1.8846,0.0008,399.62,0.17,2.5,9.0,138.08,30.08,24.63,36.34,0.96,0.87,-26.29,-64,564,-938,30.0,15.9,1.3,30.0,1.1,-30.9,5.73,2.31,-26.2,34.0
2012-06-10 02:14:00,0.0,1.8849,0.0008,399.53,0.18,5.6,13.4,138.08,30.08,24.63,36.35,0.96,1.68,-26.28,-64,564,-938,30.0,15.7,1.2,29.9,1.1,-30.7,5.73,2.30,-26.2,34.0
2012-06-10 02:15:00,0.0,1.8846,0.0008,399.60,0.24,6.3,14.3,138.07,30.08,24.64,36.35,0.96,2.43,-26.27,-64,564,-939,30.0,15.9,1.3,29.9,1.1,-30.8,5.73,2.29,-26.2,34.0
2012-06-10 02:16:00,0.0,,,,,,,,,,,0.95,3.02,-26.27,-64,564,-938,30.0,15.9,1.3,29.9,1.1,-31.0,5.73,2.29,-26.2,34.0
2012-06-10 02:17:00,0.0,,,,,,,,,,,0.96,3.41,-26.26,-64,564,-938,30.0,15.8,1.3,29.9,1.1,-31.0,5.73,2.30,-26.2,34.0
2012-06-10 02:18:00,0.0,,,,,,,,,,,0.96,3.92,-26.25,-64,564,-938,30.0,16.0,1.4,30.0,1.1,-31.2,5.73,2.31,-26.2,34.0
2012-06-10 02:19:00,0.0,,,,,,,,,,,0.96,4.42,-26.24,-64,564,-938,30.0,16.1,1.5,30.0,1.1,-31.1,5.73,2.30,-26.2,34.0
2012-06-10 02:20:00,0.0,,,,,,,,,,,0.97,4.98,-26.22,-64,564,-938,30.1,16.5,1.9,30.0,1.1,-31.3,5.73,2.28,-26.2,34.0
2012-06-10 02:21:00,0.0,,,,,,,,,,,0.96,5.52,-26.21,-64,564,-938,30.0,16.5,1.9,30.0,1.1,-31.1,5.73,2.29,-26.2,34.0
2012-06-10 02:22:00,0.0,,,,,,,,,,,0.96,6.03,-26.20,-64,564,-938,30.0,16.1,1.6,30.0,1.0,-31.6,5.73,2.31,-26.2,34.0
2012-06-10 02:23:00,0.0,,,,,,,,,,,0.96,6.53,-26.19,-64,564,-938,30.1,16.3,1.8,30.0,1.1,-31.2,5.73,2.31,-26.2,34.0
2012-06-10 02:24:00,0.0,,,,,,,,,,,0.94,7.02,-26.17,-64,564,-938,30.1,16.2,1.6,30.0,1.1,-31.3,5.73,2.29,-26.2,34.0
2012-06-10 02:25:00,0.0,,,,,,,,,,,0.96,7.48,-26.17,-64,564,-938,30.1,15.9,1.4,30.0,1.1,-31.3,5.73,2.29,-26.2,34.0
2012-06-10 02:26:00,0.0,,,,,,,,,,,0.95,7.93,-26.16,-64,564,-938,30.1,16.0,1.5,30.0,1.1,-31.3,5.73,2.30,-26.2,34.0
2012-06-10 02:27:00,0.0,,,,,,,,,,,0.96,8.36,-26.15,-64,564,-938,30.1,15.9,1.4,30.0,1.1,-31.2,5.73,2.31,-26.2,33.9
2012-06-10 02:28:00,0.0,,,,,,,,,,,0.97,8.78,-26.15,-64,564,-938,30.1,15.7,1.3,30.0,1.0,-31.4,5.73,2.29,-26.2,34.0
2012-06-10 02:29:00,0.0,,,,,,,,,,,0.95,9.18,-26.14,-64,564,-938,30.1,15.6,1.2,30.0,1.0,-31.6,5.73,2.28,-26.2,34.0
2012-06-10 02:30:00,0.0,,,,,,,,,,,0.95,9.58,-26.13,-64,564,-938,30.1,16.1,1.6,30.0,1.0,-31.6,5.73,2.28,-26.2,34.0
2012-06-10 02:31:00,0.0,,,,,,,,,,,0.95,9.97,-26.12,-64,564,-938,30.1,15.7,1.3,30.0,1.0,-31.4,5.73,2.30,-26.2,34.1
2012-06-10 02:32:00,0.0,,,,,,,,,,,0.96,10.34,-26.11,-64,564,-939,30.1,15.9,1.4,30.1,1.0,-31.7,5.73,2.31,-26.2,34.1
2012-06-10 02:33:00,0.0,,,,,,,,,,,0.94,10.70,-26.10,-64,564,-938,30.1,15.7,1.3,30.1,1.0,-31.5,5.73,2.29,-26.2,34.1
2012-06-10 02:34:00,0.0,,,,,,,,,,,0.95,11.06,-26.09,-64,565,-939,30.1,15.5,1.1,30.1,1.0,-31.5,5.73,2.28,-26.2,34.1
2012-06-10 02:35:00,0.0,,,,,,,,,,,0.97,11.40,-26.09,-64,564,-938,30.1,15.6,1.2,30.1,1.0,-31.6,5.73,2.29,-26.2,34.1
2012-06-10 02:36:00,0.0,,,,,,,,,,,0.96,11.73,-26.08,-64,564,-939,30.1,15.3,0.9,30.1,1.0,-31.6,5.73,2.31,-26.2,34.1
2012-06-10 02:37:00,0.0,,,,,,,,,,,0.96,12.05,-26.06,-64,564,-938,30.1,15.2,0.8,30.1,1.0,-31.8,5.73,2.30,-26.1,34.1
2012-06-10 02:38:00,0.0,,,,,,,,,,,0.97,12.35,-26.06,-64,565,-938,30.1,15.6,1.2,30.1,1.0,-31.8,5.73,2.28,-26.1,34.2
2012-06-10 02:39:00,0.0,,,,,,,,,,,0.96,12.65,-26.05,-64,565,-939,30.2,15.5,1.1,30.1,1.0,-31.5,5.73,2.28,-26.2,34.2
2012-06-10 02:40:00,0.0,,,,,,,,,,,0.97,12.93,-26.05,-64,564,-938,30.2,15.5,1.1,30.1,1.0,-31.5,5.73,2.30,-26.1,34.2
2012-06-10 02:41:00,0.0,,,,,,,,,,,0.97,13.20,-26.04,-64,565,-939,30.2,15.2,0.9,30.2,1.0,-31.7,5.73,2.31,-26.2,34.2
2012-06-10 02:42:00,0.0,,,,,,,,,,,0.98,13.46,-26.03,-64,565,-938,30.2,15.1,0.8,30.1,1.0,-31.5,5.73,2.28,-26.1,34.2
2012-06-10 02:43:00,0.0,,,,,,,,,,,0.96,13.71,-26.03,-64,565,-938,30.2,15.2,0.8,30.1,1.0,-31.6,5.73,2.28,-26.1,34.1
2012-06-10 02:44:00,0.0,,,,,,,,,,,0.97,13.95,-26.02,-64,565,-938,30.2,15.3,1.0,30.2,1.0,-31.7,5.73,2.29,-26.2,34.2
2012-06-10 02:45:00,0.0,,,,,,,,,,,0.96,14.17,-26.02,-64,565,-938,30.2,15.1,0.8,30.1,1.0,-31.4,5.73,2.31,-26.1,34.2
2012-06-10 02:46:00,0.0,,,,,,,,,,,0.97,14.39,-26.00,-64,565,-939,30.2,15.2,0.9,30.1,1.0,-31.6,5.73,2.30,-26.1,34.2
2012-06-10 02:47:00,0.0,,,,,,,,,,,0.97,14.60,-26.00,-64,565,-938,30.2,15.3,1.0,30.1,1.0,-31.8,5.73,2.28,-26.1,34.2
2012-06-10 02:48:00,0.0,,,,,,,,,,,0.97,14.80,-26.00,-64,565,-939,30.2,15.2,0.9,30.2,1.0,-31.5,5.73,2.28,-26.2,34.2
2012-06-10 02:49:00,0.0,,,,,,,,,,,0.96,14.99,-25.99,-64,565,-938,30.2,15.3,1.0,30.2,1.0,-31.6,5.73,2.30,-26.2,34.2
2012-06-10 02:50:00,0.0,,,,,,,,,,,0.97,15.18,-25.98,-64,565,-938,30.2,15.3,1.0,30.2,1.0,-31.8,5.73,2.30,-26.1,34.2
2012-06-10 02:51:00,0.0,,,,,,,,,,,0.97,15.35,-25.97,-64,565,-939,30.3,15.3,1.0,30.2,1.0,-31.6,5.73,2.28,-26.2,34.3
2012-06-10 02:52:00,0.0,,,,,,,,,,,0.97,15.52,-25.97,-64,565,-938,30.3,15.4,1.1,30.2,1.0,-32.1,5.73,2.27,-26.2,34.2
2012-06-10 02:53:00,0.0,,,,,,,,,,,0.97,15.68,-25.96,-64,565,-939,30.2,15.3,1.0,30.2,1.0,-32.1,5.73,2.30,-26.2,34.2
2012-06-10 02:54:00,0.0,,,,,,,,,,,0.97,15.83,-25.96,-64,565,-938,30.3,15.3,1.1,30.2,0.9,-32.4,5.73,2.30,-26.2,34.1
2012-06-10 02:55:00,0.0,,,,,,,,,,,0.97,15.98,-25.95,-64,565,-938,30.3,15.4,1.1,30.2,1.0,-32.0,5.73,2.28,-26.2,34.2
2012-06-10 02:56:00,0.0,,,,,,,,,,,0.95,16.13,-25.95,-64,565,-939,30.3,15.7,1.4,30.2,0.9,-32.4,5.73,2.28,-26.2,34.2
2012-06-10 02:57:00,0.0,,,,,,,,,,,0.97,16.27,-25.94,-64,565,-938,30.3,15.7,1.4,30.2,0.9,-32.3,5.73,2.29,-26.2,34.2
2012-06-10 02:58:00,0.0,,,,,,,,,,,0.96,16.39,-25.94,-64,565,-939,30.3,15.9,1.6,30.2,0.9,-32.6,5.73,2.30,-26.2,34.2
2012-06-10 02:59:00,0.0,,,,,,,,,,,0.97,16.51,-25.94,-64,565,-938,30.3,15.9,1.6,30.2,1.0,-32.1,5.73,2.29,-26.2,34.2
2012-06-10 03:00:00,0.0,,,,,,,,,,,0.98,16.63,-25.92,-64,565,-939,30.3,16.1,1.8,30.2,0.9,-32.4,5.73,2.27,-26.2,34.3
2012-06-10 03:01:00,0.0,,,,,,,,,,,0.96,16.74,-25.92,-64,565,-939,30.3,15.9,1.6,30.2,1.0,-32.2,5.73,2.28,-26.2,34.3
2012-06-10 03:02:00,0.0,,,,,,,,,,,0.96,16.85,-25.91,-64,565,-938,30.3,16.0,1.6,30.2,0.9,-32.7,5.73,2.31,-26.2,34.3
2012-06-10 03:03:00,0.0,,,,,,,,,,,0.97,16.96,-25.91,-64,565,-939,30.3,16.1,1.8,30.3,0.9,-32.4,5.73,2.29,-26.2,34.3
2012-06-10 03:04:00,0.0,,,,,,,,,,,0.96,17.06,-25.90,-64,565,-938,30.3,16.1,1.8,30.3,0.9,-32.5,5.73,2.27,-26.2,34.3
2012-06-10 03:05:00,0.0,,,,,,,,,,,0.96,17.15,-25.90,-64,565,-939,30.3,16.4,2.1,30.3,0.9,-32.4,5.73,2.28,-26.2,34.3
2012-06-10 03:06:00,0.0,,,,,,,,,,,0.97,17.24,-25.89,-65,565,-939,30.3,16.3,1.9,30.3,0.9,-32.3,5.73,2.31,-26.1,34.3
2012-06-10 03:07:00,0.0,,,,,,,,,,,0.96,17.33,-25.89,-65,565,-938,30.3,16.2,1.9,30.3,0.9,-32.7,5.73,2.30,-26.1,34.3
2012-06-10 03:08:00,0.0,,,,,,,,,,,0.97,17.41,-25.88,-64,565,-939,30.4,16.3,2.0,30.3,0.9,-32.6,5.73,2.27,-26.1,34.4
2012-06-10 03:09:00,0.0,,,,,,,,,,,0.97,17.49,-25.88,-64,566,-938,30.4,16.3,2.0,30.3,1.0,-32.1,5.73,2.28,-26.1,34.3
2012-06-10 03:10:00,0.0,,,,,,,,,,,0.97,17.57,-25.88,-64,566,-939,30.4,16.5,2.2,30.3,0.9,-32.2,5.73,2.30,-26.1,34.3
2012-06-10 03:11:00,0.0,,,,,,,,,,,0.97,17.65,-25.87,-65,566,-939,30.4,16.5,2.2,30.4,0.9,-32.2,5.73,2.29,-26.1,34.3
2012-06-10 03:12:00,0.0,,,,,,,,,,,0.97,17.71,-25.87,-65,566,-938,30.4,16.1,1.9,30.3,0.9,-32.3,5.73,2.27,-26.1,34.3
2012-06-10 03:13:00,0.0,1.8846,0.0008,399.62,0.17,2.5,9.0,138.08,30.08,24.63,36.34,0.96,17.78,-25.86,-65,565,-939,30.4,15.8,1.5,30.3,0.9,-32.3,5.73,2.27,-26.1,34.4
2012-06-10 03:14:00,0.0,1.8849,0.0008,399.53,0.18,5.6,13.4,138.08,30.08,24.63,36.35,0.96,17.85,-25.86,-64,566,-939,30.4,15.7,1.5,30.3,0.9,-32.5,5.73,2.30,-26.1,34.3
2012-06-10 03:15:00,0.0,1.8846,0.0008,399.60,0.24,6.3,14.3,138.07,30.08,24.64,36.35,0.97,17.90,-25.85,-65,566,-939,30.4,15.6,1.4,30.3,0.9,-32.3,5.73,2.30,-26.1,34.3
2012-06-10 03:16:00,0.0,,,,,,,,,,,0.97,17.96,-25.85,-65,566,-939,30.4,15.4,1.3,30.3,0.9,-32.4,5.73,2.27,-26.1,34.4
2012-06-10 03:17:00,0.0,,,,,,,,,,,0.96,18.02,-25.84,-65,566,-938,30.5,15.5,1.3,30.4,0.9,-32.4,5.73,2.28,-26.1,34.4
2012-06-10 03:18:00,0.0,,,,,,,,,,,0.97,18.08,-25.84,-65,566,-939,30.5,15.9,1.7,30.4,1.0,-32.1,5.73,2.30,-26.1,34.4